Time,TemperatureF,DewpointF,PressureIn,WindDirection,WindDirectionDegrees,WindSpeedMPH,WindSpeedGustMPH,Humidity,HourlyPrecipIn,Conditions,Clouds,dailyrainin,SoftwareType,DateUTC
2013-11-05 00:01:00,50.7,45.3,30.07,NW,315,0.0,0.0,82,0.00,,,0.00,WUHU216HW,2013-11-05 06:01:00,
2013-11-05 00:06:00,50.7,45.3,30.07,North,0,1.5,1.5,82,0.00,,,0.00,WUHU216HW,2013-11-05 06:06:00,
2013-11-05 00:11:00,50.7,45.3,30.06,NNW,338,1.3,1.5,82,0.00,,,0.00,WUHU216HW,2013-11-05 06:11:00,
2013-11-05 00:16:00,50.7,45.3,30.07,North,0,0.0,1.3,82,0.00,,,0.00,WUHU216HW,2013-11-05 06:16:00,
2013-11-05 00:22:00,50.7,45.3,30.07,North,0,0.0,1.3,82,0.00,,,0.00,WUHU216HW,2013-11-05 06:22:00,
2013-11-05 00:27:00,50.7,45.3,30.07,North,0,0.0,0.0,82,0.00,,,0.00,WUHU216HW,2013-11-05 06:27:00,
2013-11-05 00:32:00,50.5,45.2,30.07,NNE,23,0.0,0.0,82,0.00,,,0.00,WUHU216HW,2013-11-05 06:32:00,
2013-11-05 00:37:00,50.5,45.2,30.07,North,0,1.3,1.7,82,0.00,,,0.00,WUHU216HW,2013-11-05 06:37:00,
2013-11-05 00:42:00,50.3,45.3,30.07,ESE,113,0.0,1.7,83,0.00,,,0.00,WUHU216HW,2013-11-05 06:42:00,
2013-11-05 00:47:00,50.1,45.1,30.07,NE,45,0.0,0.0,83,0.00,,,0.00,WUHU216HW,2013-11-05 06:47:00,
2013-11-05 00:52:00,50.1,45.1,30.07,ENE,68,0.0,2.0,83,0.00,,,0.00,WUHU216HW,2013-11-05 06:52:00,
2013-11-05 00:57:00,50.0,44.9,30.07,ENE,68,0.0,2.0,83,0.00,,,0.00,WUHU216HW,2013-11-05 06:57:00,
2013-11-05 01:02:00,49.8,44.7,30.07,ENE,68,0.0,0.0,83,0.00,,,0.00,WUHU216HW,2013-11-05 07:02:00,
2013-11-05 01:07:00,49.8,44.7,30.07,NNE,23,0.0,0.0,83,0.00,,,0.00,WUHU216HW,2013-11-05 07:07:00,
2013-11-05 01:12:00,49.8,45.1,30.07,ENE,68,0.0,0.0,84,0.00,,,0.00,WUHU216HW,2013-11-05 07:12:00,
2013-11-05 01:17:00,49.8,45.1,30.07,ENE,68,0.0,0.0,84,0.00,,,0.00,WUHU216HW,2013-11-05 07:17:00,
2013-11-05 01:22:00,49.8,45.1,30.07,NNE,23,0.0,0.0,84,0.00,,,0.00,WUHU216HW,2013-11-05 07:22:00,
2013-11-05 01:27:00,49.6,44.9,30.07,NE,45,0.0,0.0,84,0.00,,,0.00,WUHU216HW,2013-11-05 07:27:00,
2013-11-05 01:32:00,49.6,44.9,30.07,SE,135,0.0,0.0,84,0.00,,,0.00,WUHU216HW,2013-11-05 07:32:00,
2013-11-05 01:37:00,49.6,44.9,30.08,SSE,158,0.0,0.0,84,0.00,,,0.00,WUHU216HW,2013-11-05 07:37:00,
2013-11-05 01:42:00,49.6,44.9,30.08,SE,135,0.0,0.0,84,0.00,,,0.00,WUHU216HW,2013-11-05 07:42:00,
2013-11-05 01:47:00,49.6,45.2,30.08,North,0,0.6,0.6,85,0.00,,,0.00,WUHU216HW,2013-11-05 07:47:00,
2013-11-05 01:52:00,49.6,45.2,30.08,North,0,0.0,2.2,85,0.00,,,0.00,WUHU216HW,2013-11-05 07:52:00,
2013-11-05 01:57:00,49.6,45.2,30.08,North,0,0.0,2.2,85,0.00,,,0.00,WUHU216HW,2013-11-05 07:57:00,
2013-11-05 02:02:00,49.6,45.2,30.08,North,0,0.0,0.0,85,0.00,,,0.00,WUHU216HW,2013-11-05 08:02:00,
2013-11-05 02:07:00,49.6,45.2,30.08,NNE,23,1.3,1.3,85,0.00,,,0.00,WUHU216HW,2013-11-05 08:07:00,
2013-11-05 02:12:00,49.6,45.2,30.08,North,0,2.4,3.3,85,0.00,,,0.00,WUHU216HW,2013-11-05 08:12:00,
2013-11-05 02:17:00,49.6,45.2,30.08,NE,45,0.0,3.3,85,0.00,,,0.00,WUHU216HW,2013-11-05 08:17:00,
2013-11-05 02:22:00,49.6,45.2,30.08,NE,45,0.0,0.0,85,0.00,,,0.00,WUHU216HW,2013-11-05 08:22:00,
2013-11-05 02:27:00,49.6,45.2,30.08,NE,45,1.3,1.3,85,0.00,,,0.00,WUHU216HW,2013-11-05 08:27:00,
2013-11-05 02:32:00,49.6,45.2,30.07,ENE,68,1.3,1.5,85,0.00,,,0.00,WUHU216HW,2013-11-05 08:32:00,
2013-11-05 02:38:00,49.6,45.2,30.07,NNE,23,1.1,2.4,85,0.00,,,0.00,WUHU216HW,2013-11-05 08:38:00,
2013-11-05 02:42:00,49.6,45.5,30.07,NNE,23,0.0,2.4,86,0.00,,,0.00,WUHU216HW,2013-11-05 08:42:00,
2013-11-05 02:48:00,49.6,45.5,30.07,ENE,68,0.0,2.2,86,0.00,,,0.00,WUHU216HW,2013-11-05 08:48:00,
2013-11-05 02:53:00,49.6,45.2,30.07,East,90,0.0,1.1,85,0.00,,,0.00,WUHU216HW,2013-11-05 08:53:00,
2013-11-05 02:58:00,49.6,45.2,30.07,NE,45,1.1,1.1,85,0.00,,,0.00,WUHU216HW,2013-11-05 08:58:00,
2013-11-05 03:03:00,49.6,45.2,30.07,NNE,23,0.0,1.1,85,0.00,,,0.00,WUHU216HW,2013-11-05 09:03:00,
2013-11-05 03:08:00,49.6,45.2,30.07,ENE,68,0.0,1.1,85,0.00,,,0.00,WUHU216HW,2013-11-05 09:08:00,
2013-11-05 03:13:00,49.6,45.2,30.07,North,0,0.0,1.1,85,0.00,,,0.00,WUHU216HW,2013-11-05 09:13:00,
2013-11-05 03:18:00,49.6,45.2,30.07,NE,45,1.5,2.2,85,0.00,,,0.00,WUHU216HW,2013-11-05 09:18:00,
2013-11-05 03:23:00,49.6,45.5,30.07,ENE,68,0.0,2.2,86,0.00,,,0.00,WUHU216HW,2013-11-05 09:23:00,
2013-11-05 03:28:00,49.6,45.5,30.08,South,180,2.4,2.4,86,0.00,,,0.00,WUHU216HW,2013-11-05 09:28:00,
2013-11-05 03:33:00,49.6,45.2,30.08,South,180,1.3,2.6,85,0.00,,,0.00,WUHU216HW,2013-11-05 09:33:00,
2013-11-05 03:38:00,49.6,45.2,30.08,SSW,203,0.0,2.6,85,0.00,,,0.00,WUHU216HW,2013-11-05 09:38:00,
2013-11-05 03:43:00,49.4,45.0,30.08,SSW,203,0.0,1.3,85,0.00,,,0.00,WUHU216HW,2013-11-05 09:43:00,
2013-11-05 03:48:00,49.4,45.3,30.08,NNE,23,0.0,0.0,86,0.00,,,0.00,WUHU216HW,2013-11-05 09:48:00,
2013-11-05 03:53:00,49.4,45.3,30.08,North,0,0.0,1.3,86,0.00,,,0.00,WUHU216HW,2013-11-05 09:53:00,
2013-11-05 03:58:00,49.2,45.2,30.08,North,0,0.0,1.3,86,0.00,,,0.00,WUHU216HW,2013-11-05 09:58:00,
2013-11-05 04:03:00,49.2,45.2,30.08,NE,45,0.0,0.0,86,0.00,,,0.00,WUHU216HW,2013-11-05 10:03:00,
2013-11-05 04:08:00,49.2,45.2,30.08,NNE,23,0.0,0.0,86,0.00,,,0.00,WUHU216HW,2013-11-05 10:08:00,
2013-11-05 04:13:00,49.2,45.2,30.08,ENE,68,0.0,0.0,86,0.00,,,0.00,WUHU216HW,2013-11-05 10:13:00,
2013-11-05 04:18:00,49.2,45.2,30.08,South,180,0.0,0.0,86,0.00,,,0.00,WUHU216HW,2013-11-05 10:18:00,
2013-11-05 04:23:00,49.2,45.2,30.08,North,0,1.3,1.3,86,0.00,,,0.00,WUHU216HW,2013-11-05 10:23:00,
2013-11-05 04:28:00,49.2,45.2,30.08,North,0,0.0,1.3,86,0.00,,,0.00,WUHU216HW,2013-11-05 10:28:00,
2013-11-05 04:33:00,49.2,45.2,30.08,NE,45,0.0,1.3,86,0.00,,,0.00,WUHU216HW,2013-11-05 10:33:00,
2013-11-05 04:38:00,49.2,45.2,30.08,NNE,23,0.0,0.0,86,0.00,,,0.00,WUHU216HW,2013-11-05 10:38:00,
2013-11-05 04:43:00,49.1,45.0,30.08,NE,45,0.0,0.0,86,0.00,,,0.00,WUHU216HW,2013-11-05 10:43:00,
2013-11-05 04:48:00,49.1,45.0,30.08,NNE,23,0.0,0.8,86,0.00,,,0.00,WUHU216HW,2013-11-05 10:48:00,
2013-11-05 04:53:00,49.1,45.0,30.08,NNE,23,2.6,2.6,86,0.00,,,0.00,WUHU216HW,2013-11-05 10:53:00,
2013-11-05 04:58:00,49.2,45.5,30.07,NE,45,2.2,3.3,87,0.00,,,0.00,WUHU216HW,2013-11-05 10:58:00,
2013-11-05 05:03:00,49.1,45.3,30.07,NNE,23,1.5,3.3,87,0.00,,,0.00,WUHU216HW,2013-11-05 11:03:00,
2013-11-05 05:08:00,49.1,45.3,30.08,NNE,23,0.0,2.2,87,0.00,,,0.00,WUHU216HW,2013-11-05 11:08:00,
2013-11-05 05:13:00,49.1,45.3,30.08,NE,45,2.4,2.4,87,0.00,,,0.00,WUHU216HW,2013-11-05 11:13:00,
2013-11-05 05:18:00,49.1,45.3,30.08,ESE,113,0.0,2.4,87,0.00,,,0.00,WUHU216HW,2013-11-05 11:18:00,
2013-11-05 05:23:00,49.1,45.3,30.09,NE,45,0.0,2.4,87,0.00,,,0.00,WUHU216HW,2013-11-05 11:23:00,
2013-11-05 05:28:00,49.1,45.0,30.09,South,180,0.0,0.0,86,0.00,,,0.00,WUHU216HW,2013-11-05 11:28:00,
2013-11-05 05:34:00,49.1,45.0,30.08,NE,45,0.0,0.0,86,0.00,,,0.00,WUHU216HW,2013-11-05 11:34:00,
2013-11-05 05:39:00,49.1,45.3,30.08,NE,45,0.8,0.8,87,0.00,,,0.00,WUHU216HW,2013-11-05 11:39:00,
2013-11-05 05:44:00,49.1,45.3,30.08,NE,45,1.3,2.9,87,0.00,,,0.00,WUHU216HW,2013-11-05 11:44:00,
2013-11-05 05:49:00,49.1,45.3,30.08,NE,45,3.5,3.5,87,0.00,,,0.00,WUHU216HW,2013-11-05 11:49:00,
2013-11-05 05:54:00,49.1,45.3,30.08,ENE,68,0.0,3.5,87,0.00,,,0.00,WUHU216HW,2013-11-05 11:54:00,
2013-11-05 05:59:00,48.9,45.1,30.08,ESE,113,0.0,3.5,87,0.00,,,0.00,WUHU216HW,2013-11-05 11:59:00,
2013-11-05 06:04:00,49.1,45.3,30.09,SSE,158,0.0,2.0,87,0.00,,,0.00,WUHU216HW,2013-11-05 12:04:00,
2013-11-05 06:09:00,48.9,45.1,30.09,SSE,158,0.0,0.8,87,0.00,,,0.00,WUHU216HW,2013-11-05 12:09:00,
2013-11-05 06:14:00,48.9,45.1,30.09,SSE,158,0.0,0.0,87,0.00,,,0.00,WUHU216HW,2013-11-05 12:14:00,
2013-11-05 06:19:00,48.9,45.1,30.09,NE,45,0.0,0.0,87,0.00,,,0.00,WUHU216HW,2013-11-05 12:19:00,
2013-11-05 06:24:00,48.9,45.1,30.09,NE,45,0.0,0.0,87,0.00,,,0.00,WUHU216HW,2013-11-05 12:24:00,
2013-11-05 06:29:00,48.9,45.1,30.09,NE,45,0.0,0.0,87,0.00,,,0.00,WUHU216HW,2013-11-05 12:29:00,
2013-11-05 06:34:00,48.9,45.1,30.09,NE,45,0.0,0.0,87,0.00,,,0.00,WUHU216HW,2013-11-05 12:34:00,
2013-11-05 06:39:00,48.9,45.1,30.09,NE,45,0.0,0.0,87,0.00,,,0.00,WUHU216HW,2013-11-05 12:39:00,
2013-11-05 06:44:00,48.9,45.1,30.09,NE,45,0.0,0.0,87,0.00,,,0.00,WUHU216HW,2013-11-05 12:44:00,
2013-11-05 06:49:00,48.9,45.1,30.08,NNE,23,0.0,0.0,87,0.00,,,0.00,WUHU216HW,2013-11-05 12:49:00,
2013-11-05 06:54:00,48.9,45.1,30.08,NE,45,1.1,1.1,87,0.00,,,0.00,WUHU216HW,2013-11-05 12:54:00,
2013-11-05 06:59:00,48.9,45.1,30.08,NE,45,0.0,1.1,87,0.00,,,0.00,WUHU216HW,2013-11-05 12:59:00,
2013-11-05 07:05:00,48.9,45.1,30.08,ENE,68,1.5,1.5,87,0.00,,,0.00,WUHU216HW,2013-11-05 13:05:00,
2013-11-05 07:10:00,48.9,45.1,30.08,NNE,23,0.0,1.5,87,0.00,,,0.00,WUHU216HW,2013-11-05 13:10:00,
2013-11-05 07:15:00,48.9,45.1,30.08,NE,45,0.0,0.0,87,0.00,,,0.00,WUHU216HW,2013-11-05 13:15:00,
2013-11-05 07:20:00,48.9,45.1,30.08,NE,45,0.0,0.0,87,0.00,,,0.00,WUHU216HW,2013-11-05 13:20:00,
2013-11-05 07:25:00,48.9,45.1,30.08,ENE,68,0.0,0.6,87,0.00,,,0.00,WUHU216HW,2013-11-05 13:25:00,
2013-11-05 07:30:00,48.9,45.1,30.08,NE,45,0.0,1.3,87,0.00,,,0.00,WUHU216HW,2013-11-05 13:30:00,
2013-11-05 07:35:00,48.9,45.1,30.08,ENE,68,0.0,1.3,87,0.00,,,0.00,WUHU216HW,2013-11-05 13:35:00,
2013-11-05 07:40:00,49.1,45.3,30.09,ENE,68,0.0,1.3,87,0.00,,,0.00,WUHU216HW,2013-11-05 13:40:00,
2013-11-05 07:45:00,49.1,45.3,30.08,NE,45,2.4,2.4,87,0.00,,,0.00,WUHU216HW,2013-11-05 13:45:00,
2013-11-05 07:50:00,49.1,45.3,30.08,ENE,68,0.0,2.4,87,0.00,,,0.00,WUHU216HW,2013-11-05 13:50:00,
2013-11-05 07:55:00,49.1,45.3,30.08,NE,45,0.0,2.4,87,0.00,,,0.00,WUHU216HW,2013-11-05 13:55:00,
2013-11-05 08:00:00,49.1,45.3,30.09,East,90,0.0,0.0,87,0.00,,,0.00,WUHU216HW,2013-11-05 14:00:00,
2013-11-05 08:06:00,49.2,45.5,30.08,East,90,0.0,0.0,87,0.00,,,0.00,WUHU216HW,2013-11-05 14:06:00,
2013-11-05 08:11:00,49.2,45.8,30.08,East,90,0.0,0.0,88,0.00,,,0.00,WUHU216HW,2013-11-05 14:11:00,
2013-11-05 08:16:00,49.2,45.8,30.09,East,90,0.0,0.0,88,0.00,,,0.00,WUHU216HW,2013-11-05 14:16:00,
2013-11-05 08:21:00,49.2,45.8,30.09,East,90,0.0,0.0,88,0.00,,,0.00,WUHU216HW,2013-11-05 14:21:00,
2013-11-05 08:26:00,49.6,46.1,30.09,South,180,0.0,0.0,88,0.00,,,0.00,WUHU216HW,2013-11-05 14:26:00,
2013-11-05 08:31:00,49.6,45.8,30.08,ESE,113,0.0,0.0,87,0.00,,,0.00,WUHU216HW,2013-11-05 14:31:00,
2013-11-05 08:36:00,49.6,46.1,30.08,ESE,113,0.0,0.0,88,0.00,,,0.00,WUHU216HW,2013-11-05 14:36:00,
2013-11-05 08:41:00,49.8,46.3,30.08,East,90,0.0,0.0,88,0.00,,,0.00,WUHU216HW,2013-11-05 14:41:00,
2013-11-05 08:46:00,49.8,46.3,30.08,NE,45,0.0,0.0,88,0.00,,,0.00,WUHU216HW,2013-11-05 14:46:00,
2013-11-05 08:51:00,49.8,46.3,30.07,ENE,68,0.0,0.0,88,0.00,,,0.00,WUHU216HW,2013-11-05 14:51:00,
2013-11-05 08:56:00,50.1,46.6,30.07,East,90,0.0,0.0,88,0.00,,,0.00,WUHU216HW,2013-11-05 14:56:00,
2013-11-05 09:01:00,50.1,46.6,30.07,ENE,68,0.0,1.1,88,0.00,,,0.00,WUHU216HW,2013-11-05 15:01:00,
2013-11-05 09:06:00,50.3,46.8,30.06,SE,135,0.0,2.0,88,0.00,,,0.00,WUHU216HW,2013-11-05 15:06:00,
2013-11-05 09:11:00,50.7,47.2,30.06,ESE,113,0.0,2.0,88,0.00,,,0.00,WUHU216HW,2013-11-05 15:11:00,
2013-11-05 09:16:00,50.7,47.2,30.06,East,90,0.0,0.0,88,0.00,,,0.00,WUHU216HW,2013-11-05 15:16:00,
2013-11-05 09:21:00,51.0,47.5,30.06,SE,135,0.0,2.4,88,0.00,,,0.00,WUHU216HW,2013-11-05 15:21:00,
2013-11-05 09:26:00,51.4,47.9,30.06,SSE,158,0.8,2.4,88,0.00,,,0.00,WUHU216HW,2013-11-05 15:26:00,
2013-11-05 09:31:00,51.6,48.1,30.06,ESE,113,0.0,0.8,88,0.00,,,0.00,WUHU216HW,2013-11-05 15:31:00,
2013-11-05 09:36:00,51.6,48.1,30.06,SE,135,0.0,0.8,88,0.00,,,0.00,WUHU216HW,2013-11-05 15:36:00,
2013-11-05 09:41:00,51.8,48.6,30.06,SE,135,1.1,5.3,89,0.00,,,0.00,WUHU216HW,2013-11-05 15:41:00,
2013-11-05 09:46:00,51.8,48.6,30.06,SSE,158,1.3,5.3,89,0.00,,,0.00,WUHU216HW,2013-11-05 15:46:00,
2013-11-05 09:51:00,51.9,48.7,30.06,SSE,158,0.0,2.4,89,0.00,,,0.00,WUHU216HW,2013-11-05 15:51:00,
2013-11-05 09:56:00,51.9,48.7,30.05,South,180,3.3,5.3,89,0.00,,,0.00,WUHU216HW,2013-11-05 15:56:00,
2013-11-05 10:01:00,52.3,49.1,30.05,SSE,158,0.0,5.3,89,0.00,,,0.00,WUHU216HW,2013-11-05 16:01:00,
2013-11-05 10:06:00,52.3,49.1,30.05,SSW,203,1.1,3.3,89,0.00,,,0.00,WUHU216HW,2013-11-05 16:06:00,
2013-11-05 10:11:00,52.5,49.3,30.05,SSE,158,0.0,2.6,89,0.00,,,0.00,WUHU216HW,2013-11-05 16:11:00,
2013-11-05 10:16:00,52.5,49.3,30.05,SE,135,0.0,2.6,89,0.00,,,0.00,WUHU216HW,2013-11-05 16:16:00,
2013-11-05 10:21:00,52.7,49.5,30.05,SE,135,2.0,2.0,89,0.00,,,0.00,WUHU216HW,2013-11-05 16:21:00,
2013-11-05 10:26:00,52.8,49.6,30.05,SE,135,0.0,2.0,89,0.00,,,0.00,WUHU216HW,2013-11-05 16:26:00,
2013-11-05 10:31:00,52.8,49.6,30.04,SSE,158,0.0,1.5,89,0.00,,,0.00,WUHU216HW,2013-11-05 16:31:00,
2013-11-05 10:36:00,52.8,49.6,30.04,South,180,9.3,9.3,89,0.00,,,0.00,WUHU216HW,2013-11-05 16:36:00,
2013-11-05 10:41:00,53.2,50.0,30.03,SSE,158,1.5,9.3,89,0.00,,,0.00,WUHU216HW,2013-11-05 16:41:00,
2013-11-05 10:46:00,53.4,50.2,30.03,SSE,158,2.2,4.0,89,0.00,,,0.00,WUHU216HW,2013-11-05 16:46:00,
2013-11-05 10:51:00,53.7,50.5,30.03,SE,135,2.0,4.4,89,0.00,,,0.00,WUHU216HW,2013-11-05 16:51:00,
2013-11-05 10:56:00,53.7,50.9,30.03,SSE,158,2.2,4.9,90,0.00,,,0.00,WUHU216HW,2013-11-05 16:56:00,
2013-11-05 11:01:00,53.7,50.5,30.03,ESE,113,0.0,8.0,89,0.00,,,0.00,WUHU216HW,2013-11-05 17:01:00,
2013-11-05 11:06:00,53.9,50.7,30.03,South,180,4.4,8.0,89,0.00,,,0.00,WUHU216HW,2013-11-05 17:06:00,
2013-11-05 11:11:00,53.9,50.5,30.03,South,180,2.4,4.4,89,0.00,,,0.00,WUHU216HW,2013-11-05 17:11:00,
2013-11-05 11:16:00,53.9,50.7,30.02,SSE,158,1.7,2.4,89,0.00,,,0.00,WUHU216HW,2013-11-05 17:16:00,
2013-11-05 11:21:00,53.9,50.7,30.02,SE,135,2.2,3.5,89,0.00,,,0.00,WUHU216HW,2013-11-05 17:21:00,
2013-11-05 11:26:00,53.9,50.7,30.01,South,180,3.3,3.5,89,0.00,,,0.00,WUHU216HW,2013-11-05 17:26:00,
2013-11-05 11:31:00,53.9,50.7,30.01,SE,135,2.0,4.0,89,0.00,,,0.00,WUHU216HW,2013-11-05 17:31:00,
2013-11-05 11:36:00,53.9,50.7,30.00,South,180,2.4,4.0,89,0.00,,,0.00,WUHU216HW,2013-11-05 17:36:00,
2013-11-05 11:41:00,53.9,50.7,30.00,South,180,1.7,2.9,89,0.00,,,0.00,WUHU216HW,2013-11-05 17:41:00,
2013-11-05 11:46:00,53.9,50.7,30.00,SE,135,1.5,4.0,89,0.00,,,0.00,WUHU216HW,2013-11-05 17:46:00,
2013-11-05 11:51:00,54.1,50.9,29.99,SSE,158,2.0,4.0,89,0.00,,,0.00,WUHU216HW,2013-11-05 17:51:00,
2013-11-05 11:56:00,53.9,50.7,29.99,SSW,203,7.6,7.6,89,0.00,,,0.00,WUHU216HW,2013-11-05 17:56:00,
2013-11-05 12:01:00,53.9,50.7,29.99,SE,135,2.6,7.6,89,0.00,,,0.00,WUHU216HW,2013-11-05 18:01:00,
2013-11-05 12:06:00,53.9,50.7,29.98,SSE,158,2.2,7.6,89,0.00,,,0.00,WUHU216HW,2013-11-05 18:06:00,
2013-11-05 12:11:00,53.9,50.7,29.98,SE,135,0.8,2.6,89,0.00,,,0.00,WUHU216HW,2013-11-05 18:11:00,
2013-11-05 12:17:00,54.1,50.9,29.97,SSE,158,1.3,2.4,89,0.00,,,0.00,WUHU216HW,2013-11-05 18:17:00,
2013-11-05 12:22:00,54.1,50.9,29.97,SE,135,1.1,1.7,89,0.00,,,0.00,WUHU216HW,2013-11-05 18:22:00,
2013-11-05 12:27:00,54.1,50.9,29.96,South,180,3.1,5.8,89,0.00,,,0.00,WUHU216HW,2013-11-05 18:27:00,
2013-11-05 12:32:00,54.1,51.2,29.96,South,180,3.1,5.8,90,0.00,,,0.00,WUHU216HW,2013-11-05 18:32:00,
2013-11-05 12:37:00,54.1,50.9,29.96,ESE,113,0.0,3.1,89,0.00,,,0.00,WUHU216HW,2013-11-05 18:37:00,
2013-11-05 12:42:00,54.1,51.2,29.96,SSW,203,3.8,6.2,90,0.00,,,0.00,WUHU216HW,2013-11-05 18:42:00,
2013-11-05 12:47:00,54.1,51.2,29.95,SSE,158,5.3,6.2,90,0.00,,,0.00,WUHU216HW,2013-11-05 18:47:00,
2013-11-05 12:52:00,53.9,51.0,29.95,ESE,113,1.7,5.3,90,0.00,,,0.00,WUHU216HW,2013-11-05 18:52:00,
2013-11-05 12:57:00,54.1,51.2,29.94,SSE,158,5.8,7.3,90,0.00,,,0.00,WUHU216HW,2013-11-05 18:57:00,
2013-11-05 13:02:00,54.1,51.2,29.93,South,180,0.6,7.3,90,0.00,,,0.00,WUHU216HW,2013-11-05 19:02:00,
2013-11-05 13:07:00,54.1,51.2,29.93,SSE,158,4.4,5.8,90,0.00,,,0.00,WUHU216HW,2013-11-05 19:07:00,
2013-11-05 13:12:00,54.1,51.2,29.93,ESE,113,1.5,4.4,90,0.00,,,0.00,WUHU216HW,2013-11-05 19:12:00,
2013-11-05 13:17:00,54.1,51.2,29.93,ESE,113,2.2,4.2,90,0.00,,,0.00,WUHU216HW,2013-11-05 19:17:00,
2013-11-05 13:22:00,54.1,51.2,29.93,South,180,6.0,6.0,90,0.00,,,0.00,WUHU216HW,2013-11-05 19:22:00,
2013-11-05 13:27:00,54.1,51.2,29.92,SSE,158,0.8,6.0,90,0.00,,,0.00,WUHU216HW,2013-11-05 19:27:00,
2013-11-05 13:32:00,54.1,51.2,29.92,SSE,158,3.5,6.0,90,0.02,,,0.02,WUHU216HW,2013-11-05 19:32:00,
2013-11-05 13:37:00,54.1,51.2,29.92,SE,135,1.7,3.5,90,0.02,,,0.02,WUHU216HW,2013-11-05 19:37:00,
2013-11-05 13:42:00,54.1,51.2,29.92,South,180,2.2,3.5,90,0.02,,,0.02,WUHU216HW,2013-11-05 19:42:00,
2013-11-05 13:47:00,53.9,51.0,29.92,South,180,2.4,2.9,90,0.04,,,0.04,WUHU216HW,2013-11-05 19:47:00,
2013-11-05 13:52:00,54.1,51.2,29.91,ESE,113,0.0,4.9,90,0.04,,,0.04,WUHU216HW,2013-11-05 19:52:00,
2013-11-05 13:58:00,54.1,51.2,29.91,SE,135,1.7,4.9,90,0.06,,,0.06,WUHU216HW,2013-11-05 19:58:00,
2013-11-05 14:03:00,54.1,51.2,29.90,SSE,158,0.8,2.9,90,0.06,,,0.06,WUHU216HW,2013-11-05 20:03:00,
2013-11-05 14:08:00,54.1,51.2,29.90,SE,135,1.7,6.4,90,0.08,,,0.08,WUHU216HW,2013-11-05 20:08:00,
2013-11-05 14:13:00,54.1,51.2,29.89,SSE,158,2.6,6.4,90,0.08,,,0.08,WUHU216HW,2013-11-05 20:13:00,
2013-11-05 14:18:00,54.1,51.2,29.89,SSE,158,1.5,2.6,90,0.08,,,0.08,WUHU216HW,2013-11-05 20:18:00,
2013-11-05 14:23:00,54.1,51.2,29.89,SE,135,2.6,4.6,90,0.08,,,0.08,WUHU216HW,2013-11-05 20:23:00,
2013-11-05 14:28:00,54.3,51.4,29.88,South,180,3.5,4.6,90,0.06,,,0.08,WUHU216HW,2013-11-05 20:28:00,
2013-11-05 14:33:00,54.3,51.4,29.88,SSE,158,1.7,4.0,90,0.06,,,0.08,WUHU216HW,2013-11-05 20:33:00,
2013-11-05 14:38:00,54.5,51.9,29.88,SSE,158,2.9,4.0,91,0.06,,,0.08,WUHU216HW,2013-11-05 20:38:00,
2013-11-05 14:43:00,54.6,51.8,29.87,South,180,2.9,5.3,90,0.06,,,0.08,WUHU216HW,2013-11-05 20:43:00,
2013-11-05 14:48:00,54.8,52.2,29.87,SSE,158,3.8,5.3,91,0.04,,,0.08,WUHU216HW,2013-11-05 20:48:00,
2013-11-05 14:53:00,54.8,52.2,29.87,South,180,8.5,8.5,91,0.02,,,0.08,WUHU216HW,2013-11-05 20:53:00,
2013-11-05 14:58:00,54.8,52.2,29.87,South,180,4.4,8.5,91,0.02,,,0.08,WUHU216HW,2013-11-05 20:58:00,
2013-11-05 15:03:00,55.0,52.4,29.86,SSE,158,0.8,8.5,91,0.00,,,0.08,WUHU216HW,2013-11-05 21:03:00,
2013-11-05 15:08:00,55.2,52.6,29.86,South,180,7.8,7.8,91,0.00,,,0.08,WUHU216HW,2013-11-05 21:08:00,
2013-11-05 15:13:00,55.2,52.6,29.86,South,180,2.4,7.8,91,0.00,,,0.08,WUHU216HW,2013-11-05 21:13:00,
2013-11-05 15:18:00,55.2,52.6,29.86,SE,135,4.9,6.4,91,0.00,,,0.08,WUHU216HW,2013-11-05 21:18:00,
2013-11-05 15:23:00,55.2,52.6,29.86,SSE,158,3.3,6.4,91,0.00,,,0.08,WUHU216HW,2013-11-05 21:23:00,
2013-11-05 15:28:00,55.2,52.6,29.86,SSE,158,4.6,6.0,91,0.00,,,0.08,WUHU216HW,2013-11-05 21:28:00,
2013-11-05 15:33:00,55.4,52.8,29.85,South,180,5.8,6.9,91,0.00,,,0.08,WUHU216HW,2013-11-05 21:33:00,
2013-11-05 15:38:00,55.5,52.9,29.85,SSE,158,3.5,8.7,91,0.00,,,0.08,WUHU216HW,2013-11-05 21:38:00,
2013-11-05 15:43:00,55.5,52.9,29.85,South,180,11.8,11.8,91,0.00,,,0.08,WUHU216HW,2013-11-05 21:43:00,
2013-11-05 15:48:00,55.7,53.1,29.85,SSE,158,5.8,11.8,91,0.00,,,0.08,WUHU216HW,2013-11-05 21:48:00,
2013-11-05 15:53:00,55.7,53.1,29.85,SSE,158,4.4,11.8,91,0.00,,,0.08,WUHU216HW,2013-11-05 21:53:00,
2013-11-05 15:58:00,55.9,53.3,29.85,SSE,158,5.3,15.4,91,0.00,,,0.08,WUHU216HW,2013-11-05 21:58:00,
2013-11-05 16:03:00,55.9,53.3,29.85,SSE,158,6.4,15.4,91,0.00,,,0.08,WUHU216HW,2013-11-05 22:03:00,
2013-11-05 16:08:00,55.9,53.3,29.85,SE,135,7.3,8.9,91,0.00,,,0.08,WUHU216HW,2013-11-05 22:08:00,
2013-11-05 16:13:00,56.1,53.5,29.85,SSE,158,4.9,8.7,91,0.00,,,0.08,WUHU216HW,2013-11-05 22:13:00,
2013-11-05 16:18:00,56.3,53.9,29.85,SE,135,6.2,10.0,92,0.00,,,0.08,WUHU216HW,2013-11-05 22:18:00,
2013-11-05 16:23:00,56.3,53.9,29.84,South,180,12.9,12.9,92,0.00,,,0.08,WUHU216HW,2013-11-05 22:23:00,
2013-11-05 16:28:00,56.3,53.9,29.84,South,180,10.0,12.9,92,0.00,,,0.08,WUHU216HW,2013-11-05 22:28:00,
2013-11-05 16:33:00,56.4,54.1,29.84,ESE,113,7.6,10.0,92,0.00,,,0.08,WUHU216HW,2013-11-05 22:33:00,
2013-11-05 16:38:00,56.4,54.1,29.84,South,180,10.2,14.3,92,0.00,,,0.08,WUHU216HW,2013-11-05 22:38:00,
2013-11-05 16:43:00,56.4,54.1,29.84,South,180,6.0,14.3,92,0.00,,,0.08,WUHU216HW,2013-11-05 22:43:00,
2013-11-05 16:48:00,56.4,53.8,29.84,SSE,158,5.1,11.4,91,0.00,,,0.08,WUHU216HW,2013-11-05 22:48:00,
2013-11-05 16:53:00,56.4,54.1,29.84,SSE,158,6.9,6.9,92,0.00,,,0.08,WUHU216HW,2013-11-05 22:53:00,
2013-11-05 16:58:00,56.4,53.8,29.83,South,180,9.3,9.3,91,0.00,,,0.08,WUHU216HW,2013-11-05 22:58:00,
2013-11-05 17:03:00,56.4,54.1,29.84,SSW,203,8.9,9.3,92,0.00,,,0.08,WUHU216HW,2013-11-05 23:03:00,
2013-11-05 17:08:00,56.4,53.8,29.84,SSE,158,5.1,9.3,91,0.00,,,0.08,WUHU216HW,2013-11-05 23:08:00,
2013-11-05 17:13:00,56.4,53.8,29.83,South,180,4.6,14.0,91,0.00,,,0.08,WUHU216HW,2013-11-05 23:13:00,
2013-11-05 17:18:00,56.4,53.8,29.83,South,180,5.1,14.0,91,0.00,,,0.08,WUHU216HW,2013-11-05 23:18:00,
2013-11-05 17:24:00,56.4,53.8,29.83,South,180,17.4,17.4,91,0.00,,,0.08,WUHU216HW,2013-11-05 23:24:00,
2013-11-05 17:29:00,56.4,53.8,29.83,ESE,113,2.4,17.4,91,0.00,,,0.08,WUHU216HW,2013-11-05 23:29:00,
2013-11-05 17:34:00,56.4,53.8,29.83,SSE,158,6.4,12.9,91,0.00,,,0.08,WUHU216HW,2013-11-05 23:34:00,
2013-11-05 17:39:00,56.4,53.8,29.83,SSW,203,9.1,12.9,91,0.00,,,0.08,WUHU216HW,2013-11-05 23:39:00,
2013-11-05 17:44:00,56.4,53.8,29.83,South,180,3.8,13.6,91,0.00,,,0.08,WUHU216HW,2013-11-05 23:44:00,
2013-11-05 17:49:00,56.3,53.7,29.83,SE,135,6.2,13.6,91,0.00,,,0.08,WUHU216HW,2013-11-05 23:49:00,
2013-11-05 17:54:00,56.4,53.8,29.83,South,180,8.0,13.1,91,0.00,,,0.08,WUHU216HW,2013-11-05 23:54:00,
2013-11-05 17:59:00,56.3,53.7,29.83,SSE,158,4.6,13.1,91,0.00,,,0.08,WUHU216HW,2013-11-05 23:59:00,
2013-11-05 18:04:00,56.3,53.7,29.82,SSE,158,10.0,10.0,91,0.02,,,0.10,WUHU216HW,2013-11-06 00:04:00,
2013-11-05 18:09:00,56.3,53.7,29.83,SSE,158,11.4,11.4,91,0.02,,,0.10,WUHU216HW,2013-11-06 00:09:00,
2013-11-05 18:14:00,56.3,53.7,29.83,South,180,8.2,11.8,91,0.04,,,0.12,WUHU216HW,2013-11-06 00:14:00,
2013-11-05 18:19:00,56.3,53.7,29.83,South,180,13.8,16.3,91,0.04,,,0.12,WUHU216HW,2013-11-06 00:19:00,
2013-11-05 18:24:00,56.1,53.5,29.83,South,180,4.9,16.3,91,0.04,,,0.12,WUHU216HW,2013-11-06 00:24:00,
2013-11-05 18:29:00,56.1,53.5,29.83,South,180,9.1,13.4,91,0.04,,,0.12,WUHU216HW,2013-11-06 00:29:00,
2013-11-05 18:34:00,56.1,53.5,29.83,South,180,8.7,9.1,91,0.04,,,0.12,WUHU216HW,2013-11-06 00:34:00,
2013-11-05 18:40:00,56.1,53.5,29.83,South,180,4.9,14.0,91,0.04,,,0.12,WUHU216HW,2013-11-06 00:40:00,
2013-11-05 18:45:00,56.1,53.5,29.82,South,180,4.0,14.0,91,0.04,,,0.12,WUHU216HW,2013-11-06 00:45:00,
2013-11-05 18:50:00,56.1,53.8,29.82,North,0,0.0,7.3,92,0.04,,,0.12,WUHU216HW,2013-11-06 00:50:00,
2013-11-05 18:55:00,56.1,53.8,29.82,SSE,158,4.9,12.0,92,0.04,,,0.12,WUHU216HW,2013-11-06 00:55:00,
2013-11-05 19:00:00,56.1,53.8,29.82,SSW,203,5.8,15.2,92,0.02,,,0.12,WUHU216HW,2013-11-06 01:00:00,
2013-11-05 19:05:00,56.1,53.8,29.82,South,180,6.7,15.2,92,0.02,,,0.12,WUHU216HW,2013-11-06 01:05:00,
2013-11-05 19:10:00,56.1,53.8,29.83,South,180,8.0,15.4,92,0.00,,,0.12,WUHU216HW,2013-11-06 01:10:00,
2013-11-05 19:15:00,56.1,53.8,29.82,South,180,7.6,15.4,92,0.02,,,0.12,WUHU216HW,2013-11-06 01:15:00,
2013-11-05 19:20:00,56.1,53.8,29.82,SSE,158,3.5,12.0,92,0.04,,,0.14,WUHU216HW,2013-11-06 01:20:00,
2013-11-05 19:25:00,55.9,53.6,29.82,SSE,158,8.9,12.0,92,0.04,,,0.16,WUHU216HW,2013-11-06 01:25:00,
2013-11-05 19:30:00,56.1,53.8,29.81,SSE,158,7.6,10.5,92,0.04,,,0.16,WUHU216HW,2013-11-06 01:30:00,
2013-11-05 19:35:00,55.9,53.6,29.81,South,180,17.0,17.0,92,0.04,,,0.16,WUHU216HW,2013-11-06 01:35:00,
2013-11-05 19:40:00,56.1,53.8,29.81,South,180,9.8,17.0,92,0.04,,,0.16,WUHU216HW,2013-11-06 01:40:00,
2013-11-05 19:45:00,56.1,53.8,29.81,South,180,9.6,17.0,92,0.04,,,0.16,WUHU216HW,2013-11-06 01:45:00,
2013-11-05 19:50:00,56.1,53.8,29.81,South,180,4.0,11.1,92,0.04,,,0.16,WUHU216HW,2013-11-06 01:50:00,
2013-11-05 19:55:00,56.1,53.8,29.81,South,180,6.4,9.6,92,0.06,,,0.18,WUHU216HW,2013-11-06 01:55:00,
2013-11-05 20:01:00,56.1,53.8,29.80,SSE,158,9.1,13.6,92,0.06,,,0.18,WUHU216HW,2013-11-06 02:01:00,
2013-11-05 20:06:00,56.1,53.8,29.80,South,180,9.8,13.6,92,0.06,,,0.18,WUHU216HW,2013-11-06 02:06:00,
2013-11-05 20:11:00,56.1,53.8,29.80,SSW,203,8.0,9.8,92,0.06,,,0.18,WUHU216HW,2013-11-06 02:11:00,
2013-11-05 20:16:00,56.1,53.8,29.80,South,180,8.9,8.9,92,0.04,,,0.18,WUHU216HW,2013-11-06 02:16:00,
2013-11-05 20:21:00,56.1,53.8,29.79,South,180,13.1,13.1,92,0.02,,,0.18,WUHU216HW,2013-11-06 02:21:00,
2013-11-05 20:26:00,56.1,53.8,29.79,South,180,3.5,13.1,92,0.02,,,0.18,WUHU216HW,2013-11-06 02:26:00,
2013-11-05 20:31:00,56.1,53.8,29.80,SSE,158,10.5,10.7,92,0.02,,,0.18,WUHU216HW,2013-11-06 02:31:00,
2013-11-05 20:36:00,56.1,53.8,29.80,South,180,12.0,12.0,92,0.02,,,0.18,WUHU216HW,2013-11-06 02:36:00,
2013-11-05 20:41:00,56.1,53.8,29.79,South,180,8.0,12.0,92,0.02,,,0.18,WUHU216HW,2013-11-06 02:41:00,
2013-11-05 20:46:00,56.1,53.8,29.79,South,180,6.2,8.0,92,0.02,,,0.18,WUHU216HW,2013-11-06 02:46:00,
2013-11-05 20:51:00,56.1,53.8,29.79,South,180,8.9,8.9,92,0.02,,,0.18,WUHU216HW,2013-11-06 02:51:00,
2013-11-05 20:56:00,56.3,53.9,29.79,South,180,5.3,8.9,92,0.00,,,0.18,WUHU216HW,2013-11-06 02:56:00,
2013-11-05 21:01:00,56.3,53.9,29.79,SSE,158,2.6,8.0,92,0.00,,,0.18,WUHU216HW,2013-11-06 03:01:00,
2013-11-05 21:06:00,56.3,53.9,29.79,SSE,158,6.0,6.0,92,0.00,,,0.18,WUHU216HW,2013-11-06 03:06:00,
2013-11-05 21:11:00,56.3,54.2,29.79,South,180,7.8,8.0,93,0.00,,,0.18,WUHU216HW,2013-11-06 03:11:00,
2013-11-05 21:16:00,56.3,54.2,29.79,SSE,158,3.3,8.0,93,0.00,,,0.18,WUHU216HW,2013-11-06 03:16:00,
2013-11-05 21:21:00,56.3,54.2,29.79,SSW,203,4.4,7.8,93,0.00,,,0.18,WUHU216HW,2013-11-06 03:21:00,
2013-11-05 21:26:00,56.4,54.4,29.79,South,180,14.5,15.2,93,0.00,,,0.18,WUHU216HW,2013-11-06 03:26:00,
2013-11-05 21:31:00,56.4,54.4,29.79,South,180,4.4,15.2,93,0.00,,,0.18,WUHU216HW,2013-11-06 03:31:00,
2013-11-05 21:37:00,56.4,54.4,29.79,South,180,7.1,14.5,93,0.00,,,0.18,WUHU216HW,2013-11-06 03:37:00,
2013-11-05 21:42:00,56.4,54.4,29.79,South,180,8.2,8.5,93,0.00,,,0.18,WUHU216HW,2013-11-06 03:42:00,
2013-11-05 21:47:00,56.4,54.4,29.78,South,180,11.8,11.8,93,0.00,,,0.18,WUHU216HW,2013-11-06 03:47:00,
2013-11-05 21:52:00,56.4,54.4,29.79,South,180,5.3,11.8,93,0.00,,,0.18,WUHU216HW,2013-11-06 03:52:00,
2013-11-05 21:57:00,56.4,54.4,29.78,SSE,158,7.8,11.8,93,0.00,,,0.18,WUHU216HW,2013-11-06 03:57:00,
2013-11-05 22:02:00,56.4,54.4,29.78,South,180,11.6,11.6,93,0.00,,,0.18,WUHU216HW,2013-11-06 04:02:00,
2013-11-05 22:07:00,56.4,54.4,29.78,South,180,9.6,11.6,93,0.00,,,0.18,WUHU216HW,2013-11-06 04:07:00,
2013-11-05 22:12:00,56.4,54.4,29.78,SSW,203,6.2,9.6,93,0.02,,,0.20,WUHU216HW,2013-11-06 04:12:00,
2013-11-05 22:17:00,56.4,54.4,29.78,SW,225,11.6,11.6,93,0.02,,,0.20,WUHU216HW,2013-11-06 04:17:00,
2013-11-05 22:22:00,56.4,54.4,29.77,South,180,10.0,13.4,93,0.02,,,0.20,WUHU216HW,2013-11-06 04:22:00,
2013-11-05 22:27:00,56.8,54.8,29.77,South,180,11.1,13.4,93,0.02,,,0.20,WUHU216HW,2013-11-06 04:27:00,
2013-11-05 22:32:00,56.8,54.8,29.77,ESE,113,8.5,11.1,93,0.02,,,0.20,WUHU216HW,2013-11-06 04:32:00,
2013-11-05 22:37:00,56.8,54.8,29.77,South,180,12.3,12.3,93,0.02,,,0.20,WUHU216HW,2013-11-06 04:37:00,
2013-11-05 22:42:00,56.8,54.8,29.77,South,180,6.7,14.3,93,0.02,,,0.20,WUHU216HW,2013-11-06 04:42:00,
2013-11-05 22:47:00,56.8,54.8,29.77,South,180,4.6,14.3,93,0.02,,,0.20,WUHU216HW,2013-11-06 04:47:00,
2013-11-05 22:52:00,56.8,54.8,29.77,SSE,158,5.8,8.5,93,0.02,,,0.20,WUHU216HW,2013-11-06 04:52:00,
2013-11-05 22:58:00,56.8,54.8,29.76,SSE,158,11.8,11.8,93,0.02,,,0.20,WUHU216HW,2013-11-06 04:58:00,
2013-11-05 23:01:00,56.8,54.8,29.76,SSW,203,9.1,11.8,93,0.02,,,0.20,WUHU216HW,2013-11-06 05:01:00,
2013-11-05 23:02:00,56.8,54.8,29.76,SSW,203,9.1,11.8,93,0.02,,,0.20,WUHU216HW,2013-11-06 05:02:00,
2013-11-05 23:07:00,57.0,55.0,29.76,South,180,5.8,11.8,93,0.02,,,0.20,WUHU216HW,2013-11-06 05:07:00,
2013-11-05 23:12:00,57.0,55.0,29.76,SW,225,10.5,10.5,93,0.00,,,0.20,WUHU216HW,2013-11-06 05:12:00,
2013-11-05 23:17:00,57.0,55.0,29.76,South,180,6.9,12.9,93,0.00,,,0.20,WUHU216HW,2013-11-06 05:17:00,
2013-11-05 23:22:00,57.0,55.0,29.76,SSE,158,6.0,12.9,93,0.00,,,0.20,WUHU216HW,2013-11-06 05:22:00,
2013-11-05 23:27:00,57.0,55.0,29.76,SSE,158,6.0,10.5,93,0.00,,,0.20,WUHU216HW,2013-11-06 05:27:00,
2013-11-05 23:32:00,57.0,55.0,29.75,SSE,158,6.0,6.0,93,0.00,,,0.20,WUHU216HW,2013-11-06 05:32:00,
2013-11-05 23:43:00,57.3,55.3,29.75,South,180,7.3,7.3,93,0.00,,,0.20,WUHU216HW,2013-11-06 05:43:00,
2013-11-05 23:48:00,57.5,55.5,29.76,South,180,18.3,18.3,93,0.00,,,0.20,WUHU216HW,2013-11-06 05:48:00,
2013-11-05 23:53:00,57.5,55.5,29.75,South,180,15.2,18.3,93,0.00,,,0.20,WUHU216HW,2013-11-06 05:53:00,
2013-11-05 23:58:00,57.5,55.5,29.75,SSW,203,9.8,15.2,93,0.00,,,0.20,WUHU216HW,2013-11-06 05:58:00,